Location: Fontevrault
(47.1823°N, 0.0493°E)
Time: 03:17:36
(UTC+00:00)

Meteor 1-21 Rocket - Pass Details

Date: 29 October 2021
Orbit: 834 x 907 km, 81.2° (Epoch: 07 December)

Event Time Altitude Azimuth Distance (km) Brightness Sun altitude
Rises 18:39:21 0° 331° (NNW) 3,533 7.8 -19.5°
Reaches altitude 10° 18:43:24 10° 304° (NW) 2,594 7.5 -20.1°
Maximum altitude 18:45:43 12° 281° (W) 2,415 7.7 -20.5°
Drops below altitude 10° 18:48:02 10° 257° (WSW) 2,590 7.8 -20.9°
Sets 18:52:06 0° 230° (SW) 3,524 8.1 -21.6°
